Flag for Germany Weather past 2 weeks in Erftstadt, North Rhine-Westphalia, Germany

Now
45 °F

Broken clouds.


Feels Like: 41 °F
Forecast: 35 / 49 °F
Wind: 6 mph from West

Location: Noervenich

Current Time: Mar 5, 2015 at 3:40:21 PM

Latest Report: Mar 5, 2015 at 2:20 PM


Visibility: N/A

Pressure: 30.63 "Hg

Humidity: 61%

Dew point: 32 °F

Location of ErftstadtLocation

Historic Weather in Erftstadt — Graph

°F

Erftstadt temperature yesterday

Maximum temperature yesterday: 45 °F (at 2:20 PM)
Minimum temperature yesterday: 36 °F (at 2:20 AM)
Average temperature yesterday: 40 °F

Past Weeks' High & Low Weather Summary

 TemperatureHumidityPressure
High52 °F (Mar 1, 11:20 AM)100% (Feb 21, 9:20 PM)30.69 "Hg (Feb 21, 9:20 PM)
Low27 °F (Feb 19, 7:20 AM)50% (Feb 28, 1:20 PM)29.36 "Hg (Feb 21, 4:20 AM)
Average40 °F78%29.93 "Hg
* Reported Feb 18 2:20 PM — Mar 5 2:20 PM, Erftstadt, Weather by CustomWeather, © 2015

Note: Actual official high and low records may vary slightly from our data, if they occured in-between our weather recording intervals... More about our weather records

Advertising

Erftstadt weather history for previous 24 hours

 ConditionsComfort  
Time TempWeatherWind HumidityBarometerVisibility
2:20 PM
Thu, Mar 5
45 °FBroken clouds.6 mph61%30.63 "HgN/A
1:20 PM45 °FBroken clouds.7 mph66%30.66 "HgN/A
12:20 PM43 °FBroken clouds.5 mph81%30.66 "HgN/A
11:20 AM41 °FPartly sunny.5 mph87%30.66 "HgN/A
10:20 AM39 °FPartly sunny.6 mph93%30.66 "Hg4 mi
9:20 AM39 °FFog.5 mph93%30.66 "Hg3 mi
8:20 AM37 °FFog.3 mph93%30.63 "Hg2 mi
8:01 AM37 °FFog.6 mph93%30.63 "Hg2 mi
7:20 AM37 °FFog.6 mph93%30.63 "Hg3 mi
6:20 AM36 °FPartly cloudy.2 mph93%30.60 "HgN/A
5:20 AM36 °FPassing clouds.3 mph93%30.60 "HgN/A
4:20 AM37 °FPassing clouds.6 mph93%30.57 "HgN/A
2:20 AM39 °FPassing clouds.7 mph87%30.57 "HgN/A
1:20 AM41 °FPassing clouds.9 mph81%30.54 "HgN/A
12:20 AM39 °FPassing clouds.9 mph87%30.51 "HgN/A
11:20 PM
Wed, Mar 4
39 °FPassing clouds.8 mph87%30.48 "HgN/A
10:20 PM39 °FPartly cloudy.12 mph87%30.45 "HgN/A
9:20 PM39 °FPassing clouds.9 mph87%30.42 "HgN/A
8:20 PM41 °FPartly cloudy.13 mph76%30.39 "HgN/A
7:20 PM41 °FSprinkles. Partly cloudy.9 mph76%30.39 "HgN/A
6:20 PM41 °FPassing clouds.12 mph76%30.36 "HgN/A
5:20 PM41 °FPassing clouds.9 mph81%30.33 "HgN/A
4:20 PM45 °FScattered showers. Partly sunny.14 mph66%30.30 "HgN/A
3:20 PM43 °FSprinkles. Broken clouds.10 mph71%30.27 "HgN/A
Weather by CustomWeather, © 2015

See weather overviewHow to use our weather pages